Wind_Speed
38 36 32 30 25 21 21 19 18 19 21 23 20 18 19 15 14 14 13 11 10 10
41 40 33 33 31 28 24 21 20 20 22 24 23 21 20 18 19 19 16 15 13 11
45 42 41 40 37 34 30 28 24 22 23 26 25 25 24 21 22 23 22 19 18 14
47 45 42 44 43 40 37 35 30 30 26 28 28 27 28 26 22 26 26 25 23 20
45 46 44 43 44 42 40 38 35 33 32 32 30 30 32 31 27 30 29 29 28 26
46 46 49 46 43 43 42 41 38 37 37 35 36 37 37 37 34 32 31 30 31 29
49 49 48 49 46 45 43 43 42 42 40 39 38 40 41 37 38 36 34 31 32 32
47 50 51 51 51 48 46 44 43 44 45 43 42 41 44 46 45 44 40 36 35 35
45 46 50 52 53 50 49 47 45 46 48 49 48 48 46 46 49 50 44 42 41 36
46 45 45 45 47 49 50 48 48 48 49 52 52 51 50 48 47 48 52 49 46 42
46 45 42 41 43 44 46 48 48 49 50 52 55 54 52 50 47 49 49 49 49 47
42 41 41 41 42 41 38 38 36 34 38 46 47 52 53 52 52 51 51 45 50 49
37 39 39 38 37 35 34 32 28 29 31 33 32 32 39 44 45 41 35 42 50 54
34 35 34 33 32 30 30 27 30 30 32 31 28 26 23 37 43 45 50 56 49 50
Wind_Direction
229 230 233 236 230 233 231 234 231 232 224 227 234 239 240 244 241 240 236 233 221 218
231 231 229 231 238 233 230 227 227 225 227 227 232 236 243 238 243 237 234 236 234 227
231 233 234 239 238 238 232 231 222 227 225 227 231 241 239 239 239 239 236 231 234 230
231 232 233 237 239 238 238 239 235 232 232 228 232 237 237 236 229 240 237 234 233 230
230 231 231 233 237 239 238 236 236 234 236 232 229 233 237 239 233 237 238 237 235 236
229 230 230 231 232 236 236 234 234 234 234 234 234 234 236 238 239 239 240 238 238 239
227 227 228 230 231 234 235 235 233 233 236 236 236 238 238 236 238 241 241 238 239 239
227 230 232 234 237 239 239 238 238 235 235 237 237 237 238 238 240 241 242 240 239 237
230 230 232 236 239 241 242 242 239 237 236 236 237 237 235 238 239 242 240 240 241 237
230 233 234 235 237 239 241 242 241 239 237 238 239 240 241 241 242 243 243 243 243 242
233 235 237 238 238 238 238 239 239 239 239 239 240 242 243 243 244 246 245 246 247 246
236 239 240 241 242 242 238 239 238 237 240 244 246 248 249 249 247 246 245 239 245 246
236 237 241 245 242 237 238 232 228 232 235 239 244 248 256 258 252 248 247 246 247 247
235 238 241 243 242 237 234 225 231 232 237 241 254 261 280 283 258 247 250 247 244 246
Height
1535 1540 1544 1548 1552 1555 1557 1560 1561 1561 1563 1566 1570 1572 1573 1574 1575 1576 1578 1579 1579 1583
1527 1533 1536 1541 1544 1548 1551 1554 1556 1557 1558 1561 1564 1567 1569 1571 1571 1572 1573 1575 1577 1577
1518 1524 1529 1533 1536 1540 1543 1545 1550 1550 1553 1557 1559 1562 1564 1566 1567 1568 1569 1571 1572 1574
1509 1514 1519 1523 1527 1531 1536 1539 1542 1545 1548 1551 1554 1556 1558 1560 1563 1561 1564 1565 1566 1568
1500 1505 1509 1512 1517 1522 1527 1531 1535 1538 1541 1544 1547 1550 1551 1553 1556 1556 1557 1559 1561 1562
1489 1493 1497 1502 1508 1512 1517 1521 1526 1530 1532 1536 1539 1541 1543 1545 1547 1549 1551 1553 1555 1557
1476 1482 1487 1493 1497 1502 1507 1512 1517 1521 1524 1527 1530 1533 1536 1538 1540 1542 1544 1547 1549 1551
1466 1473 1479 1484 1488 1493 1497 1501 1506 1511 1514 1518 1521 1523 1525 1528 1530 1531 1535 1538 1540 1543
1456 1462 1467 1473 1478 1484 1487 1491 1496 1499 1503 1506 1508 1510 1514 1517 1520 1522 1526 1530 1532 1536
1448 1452 1457 1464 1469 1472 1476 1482 1485 1488 1492 1494 1498 1501 1505 1509 1514 1516 1516 1520 1524 1527
1439 1444 1450 1455 1457 1461 1465 1468 1472 1475 1480 1484 1485 1490 1495 1501 1507 1508 1511 1514 1517 1519
1431 1436 1440 1443 1445 1452 1459 1463 1468 1473 1474 1476 1481 1486 1492 1497 1498 1501 1502 1503 1500 1507
1423 1427 1430 1434 1440 1444 1449 1453 1459 1461 1464 1467 1471 1477 1482 1489 1497 1501 1507 1505 1493 1488
1415 1419 1424 1428 1432 1437 1441 1446 1447 1450 1454 1455 1460 1464 1465 1473 1479 1480 1483 1489 1481 1480